This demonstration page uses our WeatherBlox Daily Observations layout. Learn more.

Left ArrowRight Arrow

39.01783, -85.05884

Hourly Observations for June 28, 2018

Temp ( °F °C ) Dew Point ( °F °C ) Humidity (%) Winds ( mph kmh ) Pressure ( in mb ) Visibility ( mi km ) Precip ( " mm )
12:52 am 00:52 Mostly Cloudy 73 22.8 69 20.6 87 87 W 7 11 29.87 1012 10 16 N/A
1:52 am 01:52 Partly Cloudy 73 22.8 69 20.6 87 87 WNW 6 9 29.88 1012 10 16 N/A
2:52 am 02:52 Cloudy 72 22.2 69 20.6 91 91 W 7 11 29.87 1012 10 16 N/A
3:52 am 03:52 Partly Cloudy 71 21.7 68 20 90 90 WNW 3 6 29.87 1011 9 14 N/A
4:52 am 04:52 Clear 71 21.7 68 20 90 90 NNW 6 9 29.87 1011 10 16 N/A
5:52 am 05:52 Clear 68 20 65 18.3 90 90 N N/A 29.89 1012 8 13 N/A
6:52 am 06:52 Sunny with Patchy Fog 69 20.6 67 19.4 93 93 N N/A 29.91 1013 7 11 N/A
7:52 am 07:52 Mostly Sunny 72 22.2 68 20 87 87 N N/A 29.91 1013 10 16 N/A
8:52 am 08:52 Mostly Sunny 76 24.4 65 18.3 69 69 NNW 3 6 29.91 1013 10 16 N/A
9:52 am 09:52 Mostly Sunny 77 25 65 18.3 66 66 N N/A 29.94 1014 10 16 N/A
10:52 am 10:52 Mostly Sunny 80 26.7 64 17.8 58 58 N 6 9 29.95 1014 10 16 N/A
11:52 am 11:52 Mostly Sunny 81 27.2 64 17.8 57 57 NNW 5 7 29.95 1014 10 16 N/A
12:52 pm 12:52 Partly Cloudy 83 28.3 65 18.3 55 55 VRB 5 7 29.93 1014 10 16 N/A
1:52 pm 13:52 Partly Cloudy 84 28.9 64 17.8 51 51 N 6 9 29.91 1013 10 16 N/A
2:52 pm 14:52 Partly Cloudy 87 30.6 64 17.8 46 46 VRB 3 6 29.90 1013 10 16 N/A
3:52 pm 15:52 Partly Cloudy 85 29.4 63 17.2 48 48 E 3 6 29.91 1013 10 16 N/A
4:52 pm 16:52 Mostly Cloudy 85 29.4 65 18.3 51 51 SW 8 13 29.93 1013 10 16 N/A
5:52 pm 17:52 Mostly Cloudy 86 30 66 18.9 51 51 W 8 13 29.94 1014 10 16 N/A
6:52 pm 18:52 Mostly Cloudy 86 30 65 18.3 49 49 WNW 7 11 29.92 1013 10 16 N/A
7:52 pm 19:52 Mostly Cloudy 84 28.9 65 18.3 53 53 WNW 5 7 29.92 1013 10 16 N/A
8:52 pm 20:52 Mostly Cloudy 82 27.8 64 17.8 55 55 NNW 6 9 29.93 1013 10 16 N/A
9:52 pm 21:52 Mostly Cloudy 80 26.7 65 18.3 60 60 N N/A 29.93 1014 10 16 N/A
10:52 pm 22:52 Mostly Cloudy 74 23.3 66 18.9 76 76 NW 3 6 29.96 1015 10 16 N/A
11:52 pm 23:52 Cloudy 72 22.2 66 18.9 82 82 N N/A 29.98 1015 10 16 N/A

Powered by AerisWeather